Location: ???? ????????
(44.2382°N, 135.4003°E)
Time: 01:12:10
(UTC+00:00)

Envisat - Pass Details

Date: 19 May 2025
Orbit: 761 x 763 km, 98.3° (Epoch: 16 June)

Event Time Altitude Azimuth Distance (km) Brightness Sun altitude
Rises 18:26:18 0° 8° (N) 3,235 7.1 -9.7°
Reaches altitude 10° 18:28:40 10° 3° (N) 2,305 6.1 -9.4°
Maximum altitude 18:33:33 50° 289° (WNW) 967 3.3 -8.7°
Drops below altitude 10° 18:38:24 10° 215° (SW) 2,289 4.8 -8.0°
Enters shadow 18:38:44 - 214° (SW) 2,414 5.0 -8.0°
